Year,Month,Day,Hour,Minute,Value (Times are PST for temperature in C)
2018,04,23,00,00,4.30
2018,04,23,00,01,4.30
2018,04,23,00,02,4.30
2018,04,23,00,03,4.20
2018,04,23,00,04,4.20
2018,04,23,00,05,4.20
2018,04,23,00,06,4.20
2018,04,23,00,07,4.20
2018,04,23,00,08,4.20
2018,04,23,00,09,4.20
2018,04,23,00,10,4.20
2018,04,23,00,11,4.20
2018,04,23,00,12,4.20
2018,04,23,00,13,4.20
2018,04,23,00,14,4.20
2018,04,23,00,15,4.20
2018,04,23,00,16,4.20
2018,04,23,00,17,4.20
2018,04,23,00,18,4.20
2018,04,23,00,19,4.20
2018,04,23,00,20,4.20
2018,04,23,00,21,4.20
2018,04,23,00,22,4.20
2018,04,23,00,23,4.20
2018,04,23,00,24,4.20
2018,04,23,00,25,4.10
2018,04,23,00,26,4.10
2018,04,23,00,27,4.10
2018,04,23,00,28,4.10
2018,04,23,00,29,4.10
2018,04,23,00,30,4.10
2018,04,23,00,31,4.10
2018,04,23,00,32,4.10
2018,04,23,00,33,4.10
2018,04,23,00,34,4.10
2018,04,23,00,35,4.10
2018,04,23,00,36,4.10
2018,04,23,00,37,4.10
2018,04,23,00,38,4.10
2018,04,23,00,39,4.10
2018,04,23,00,40,4.10
2018,04,23,00,41,4.10
2018,04,23,00,42,4.10
2018,04,23,00,43,4.10
2018,04,23,00,44,4.10
2018,04,23,00,45,4.10
2018,04,23,00,46,4.10
2018,04,23,00,47,4.10
2018,04,23,00,48,4.00
2018,04,23,00,49,4.00
2018,04,23,00,50,4.00
2018,04,23,00,51,4.00
2018,04,23,00,52,4.00
2018,04,23,00,53,4.00
2018,04,23,00,54,4.00
2018,04,23,00,55,4.00
2018,04,23,00,56,4.00
2018,04,23,00,57,4.00
2018,04,23,00,58,3.90
2018,04,23,00,59,3.90
2018,04,23,01,00,3.90
2018,04,23,01,01,3.90
2018,04,23,01,02,3.90
2018,04,23,01,03,3.90
2018,04,23,01,04,3.90
2018,04,23,01,05,3.90
2018,04,23,01,06,3.90
2018,04,23,01,07,3.90
2018,04,23,01,08,3.90
2018,04,23,01,09,3.90
2018,04,23,01,10,3.90
2018,04,23,01,11,3.90
2018,04,23,01,12,3.90
2018,04,23,01,13,3.80
2018,04,23,01,14,3.80
2018,04,23,01,15,3.80
2018,04,23,01,16,3.80
2018,04,23,01,17,3.80
2018,04,23,01,18,3.90
2018,04,23,01,19,3.80
2018,04,23,01,20,3.80
2018,04,23,01,21,3.80
2018,04,23,01,22,3.80
2018,04,23,01,23,3.80
2018,04,23,01,24,3.80
2018,04,23,01,25,3.80
2018,04,23,01,26,3.80
2018,04,23,01,27,3.80
2018,04,23,01,28,3.80
2018,04,23,01,29,3.80
2018,04,23,01,30,3.80
2018,04,23,01,31,3.80
2018,04,23,01,32,3.80
2018,04,23,01,33,3.80
2018,04,23,01,34,3.80
2018,04,23,01,35,3.80
2018,04,23,01,36,3.80
2018,04,23,01,37,3.80
2018,04,23,01,38,3.80
2018,04,23,01,39,3.70
2018,04,23,01,40,3.70
2018,04,23,01,41,3.70
2018,04,23,01,42,3.70
2018,04,23,01,43,3.70
2018,04,23,01,44,3.70
2018,04,23,01,45,3.70
2018,04,23,01,46,3.70
2018,04,23,01,47,3.70
2018,04,23,01,48,3.70
2018,04,23,01,49,3.70
2018,04,23,01,50,3.70
2018,04,23,01,51,3.70
2018,04,23,01,52,3.70
2018,04,23,01,53,3.70
2018,04,23,01,54,3.70
2018,04,23,01,55,3.70
2018,04,23,01,56,3.70
2018,04,23,01,57,3.70
2018,04,23,01,58,3.70
2018,04,23,01,59,3.70
2018,04,23,02,00,3.70
2018,04,23,02,01,3.60
2018,04,23,02,02,3.60
2018,04,23,02,03,3.60
2018,04,23,02,04,3.60
2018,04,23,02,05,3.60
2018,04,23,02,06,3.60
2018,04,23,02,07,3.60
2018,04,23,02,08,3.60
2018,04,23,02,09,3.60
2018,04,23,02,10,3.60
2018,04,23,02,11,3.60
2018,04,23,02,12,3.60
2018,04,23,02,13,3.60
2018,04,23,02,14,3.60
2018,04,23,02,15,3.60
2018,04,23,02,16,3.60
2018,04,23,02,17,3.60
2018,04,23,02,18,3.60
2018,04,23,02,19,3.60
2018,04,23,02,20,3.60
2018,04,23,02,21,3.60
2018,04,23,02,22,3.60
2018,04,23,02,23,3.60
2018,04,23,02,24,3.60
2018,04,23,02,25,3.60
2018,04,23,02,26,3.60
2018,04,23,02,27,3.60
2018,04,23,02,28,3.60
2018,04,23,02,29,3.60
2018,04,23,02,30,3.60
2018,04,23,02,31,3.60
2018,04,23,02,32,3.50
2018,04,23,02,33,3.50
2018,04,23,02,34,3.50
2018,04,23,02,35,3.50
2018,04,23,02,36,3.50
2018,04,23,02,37,3.50
2018,04,23,02,38,3.40
2018,04,23,02,39,3.40
2018,04,23,02,40,3.40
2018,04,23,02,41,3.40
2018,04,23,02,42,3.40
2018,04,23,02,43,3.40
2018,04,23,02,44,3.40
2018,04,23,02,45,3.40
2018,04,23,02,46,3.40
2018,04,23,02,47,3.40
2018,04,23,02,48,3.40
2018,04,23,02,49,3.40
2018,04,23,02,50,3.40
2018,04,23,02,51,3.40
2018,04,23,02,52,3.40
2018,04,23,02,53,3.40
2018,04,23,02,54,3.40
2018,04,23,02,55,3.40
2018,04,23,02,56,3.40
2018,04,23,02,57,3.40
2018,04,23,02,58,3.40
2018,04,23,02,59,3.40
2018,04,23,03,00,3.40
2018,04,23,03,01,3.40
2018,04,23,03,02,3.40
2018,04,23,03,03,3.40
2018,04,23,03,04,3.40
2018,04,23,03,05,3.40
2018,04,23,03,06,3.40
2018,04,23,03,07,3.40
2018,04,23,03,08,3.40
2018,04,23,03,09,3.40
2018,04,23,03,10,3.30
2018,04,23,03,11,3.30
2018,04,23,03,12,3.30
2018,04,23,03,13,3.30
2018,04,23,03,14,3.30
2018,04,23,03,15,3.30
2018,04,23,03,16,3.30
2018,04,23,03,17,3.30
2018,04,23,03,18,3.30
2018,04,23,03,19,3.30
2018,04,23,03,20,3.20
2018,04,23,03,21,3.20
2018,04,23,03,22,3.20
2018,04,23,03,23,3.20
2018,04,23,03,24,3.20
2018,04,23,03,25,3.20
2018,04,23,03,26,3.20
2018,04,23,03,27,3.20
2018,04,23,03,28,3.10
2018,04,23,03,29,3.10
2018,04,23,03,30,3.10
2018,04,23,03,31,3.10
2018,04,23,03,32,3.10
2018,04,23,03,33,3.10
2018,04,23,03,34,3.10
2018,04,23,03,35,3.00
2018,04,23,03,36,3.00
2018,04,23,03,37,3.00
2018,04,23,03,38,3.00
2018,04,23,03,39,3.00
2018,04,23,03,40,2.90
2018,04,23,03,41,2.90
2018,04,23,03,42,2.90
2018,04,23,03,43,2.90
2018,04,23,03,44,2.90
2018,04,23,03,45,2.90
2018,04,23,03,46,2.90
2018,04,23,03,47,2.90
2018,04,23,03,48,2.90
2018,04,23,03,49,2.90
2018,04,23,03,50,2.90
2018,04,23,03,51,2.90
2018,04,23,03,52,2.80
2018,04,23,03,53,2.80
2018,04,23,03,54,2.80
2018,04,23,03,55,2.80
2018,04,23,03,56,2.80
2018,04,23,03,57,2.80
2018,04,23,03,58,2.80
2018,04,23,03,59,2.80
2018,04,23,04,00,2.80
2018,04,23,04,01,2.80
2018,04,23,04,02,2.80
2018,04,23,04,03,2.70
2018,04,23,04,04,2.70
2018,04,23,04,05,2.70
2018,04,23,04,06,2.70
2018,04,23,04,07,2.70
2018,04,23,04,08,2.70
2018,04,23,04,09,2.70
2018,04,23,04,10,2.70
2018,04,23,04,11,2.70
2018,04,23,04,12,2.70
2018,04,23,04,13,2.70
2018,04,23,04,14,2.70
2018,04,23,04,15,2.70
2018,04,23,04,16,2.70
2018,04,23,04,17,2.70
2018,04,23,04,18,2.70
2018,04,23,04,19,2.70
2018,04,23,04,20,2.70
2018,04,23,04,21,2.70
2018,04,23,04,22,2.70
2018,04,23,04,23,2.70
2018,04,23,04,24,2.70
2018,04,23,04,25,2.70
2018,04,23,04,26,2.70
2018,04,23,04,27,2.70
2018,04,23,04,28,2.70
2018,04,23,04,29,2.70
2018,04,23,04,30,2.70
2018,04,23,04,31,2.70
2018,04,23,04,32,2.70
2018,04,23,04,33,2.70
2018,04,23,04,34,2.70
2018,04,23,04,35,2.70
2018,04,23,04,36,2.80
2018,04,23,04,37,2.80
2018,04,23,04,38,2.80
2018,04,23,04,39,2.80
2018,04,23,04,40,2.80
2018,04,23,04,41,2.80
2018,04,23,04,42,2.80
2018,04,23,04,43,2.80
2018,04,23,04,44,2.80
2018,04,23,04,45,2.80
2018,04,23,04,46,2.80
2018,04,23,04,47,2.80
2018,04,23,04,48,2.90
2018,04,23,04,49,2.90
2018,04,23,04,50,2.90
2018,04,23,04,51,2.90
2018,04,23,04,52,2.90
2018,04,23,04,53,2.90
2018,04,23,04,54,2.90
2018,04,23,04,55,2.90
2018,04,23,04,56,2.90
2018,04,23,04,57,2.90
2018,04,23,04,58,3.00
2018,04,23,04,59,3.00
2018,04,23,05,00,3.00
2018,04,23,05,01,3.00
2018,04,23,05,02,3.00
2018,04,23,05,03,3.10
2018,04,23,05,04,3.10
2018,04,23,05,05,3.10
2018,04,23,05,06,3.10
2018,04,23,05,07,3.10
2018,04,23,05,08,3.10
2018,04,23,05,09,3.10
2018,04,23,05,10,3.10
2018,04,23,05,11,3.10
2018,04,23,05,12,3.10
2018,04,23,05,13,3.10
2018,04,23,05,14,3.10
2018,04,23,05,15,3.10
2018,04,23,05,16,3.10
2018,04,23,05,17,3.10
2018,04,23,05,18,3.10
2018,04,23,05,19,3.10
2018,04,23,05,20,3.10
2018,04,23,05,21,3.10
2018,04,23,05,22,3.10
2018,04,23,05,23,3.10
2018,04,23,05,24,3.10
2018,04,23,05,25,3.20
2018,04,23,05,26,3.20
2018,04,23,05,27,3.20
2018,04,23,05,28,3.20
2018,04,23,05,29,3.30
2018,04,23,05,30,3.30
2018,04,23,05,31,3.40
2018,04,23,05,32,3.40
2018,04,23,05,33,3.50
2018,04,23,05,34,3.60
2018,04,23,05,35,3.60
2018,04,23,05,36,3.70
2018,04,23,05,37,3.70
2018,04,23,05,38,3.70
2018,04,23,05,39,3.80
2018,04,23,05,40,3.80
2018,04,23,05,41,3.90
2018,04,23,05,42,3.90
2018,04,23,05,43,4.00
2018,04,23,05,44,4.00
2018,04,23,05,45,4.10
2018,04,23,05,46,4.10
2018,04,23,05,47,4.20
2018,04,23,05,48,4.20
2018,04,23,05,49,4.20
2018,04,23,05,50,4.20
2018,04,23,05,51,4.20
2018,04,23,05,52,4.20
2018,04,23,05,53,4.30
2018,04,23,05,54,4.30
2018,04,23,05,55,4.30
2018,04,23,05,56,4.30
2018,04,23,05,57,4.30
2018,04,23,05,58,4.30
2018,04,23,05,59,4.30
2018,04,23,06,00,4.30
2018,04,23,06,01,4.30
2018,04,23,06,02,4.30
2018,04,23,06,03,4.30
2018,04,23,06,04,4.30
2018,04,23,06,05,4.30
2018,04,23,06,06,4.30
2018,04,23,06,07,4.30
2018,04,23,06,08,4.30
2018,04,23,06,09,4.30
2018,04,23,06,10,4.30
2018,04,23,06,11,4.30
2018,04,23,06,12,4.30
2018,04,23,06,13,4.30
2018,04,23,06,14,4.30
2018,04,23,06,15,4.30
2018,04,23,06,16,4.30
2018,04,23,06,17,4.30
2018,04,23,06,18,4.40
2018,04,23,06,19,4.40
2018,04,23,06,20,4.40
2018,04,23,06,21,4.40
2018,04,23,06,22,4.40
2018,04,23,06,23,4.50
2018,04,23,06,24,4.50
2018,04,23,06,25,4.50
2018,04,23,06,26,4.60
2018,04,23,06,27,4.60
2018,04,23,06,28,4.60
2018,04,23,06,29,4.60
2018,04,23,06,30,4.70
2018,04,23,06,31,4.70
2018,04,23,06,32,4.70
2018,04,23,06,33,4.70
2018,04,23,06,34,4.70
2018,04,23,06,35,4.70
2018,04,23,06,36,4.80
2018,04,23,06,37,4.90
2018,04,23,06,38,5.00
2018,04,23,06,39,5.00
2018,04,23,06,40,5.10
2018,04,23,06,41,5.10
2018,04,23,06,42,5.20
2018,04,23,06,43,5.20
2018,04,23,06,44,5.30
2018,04,23,06,45,5.50
2018,04,23,06,46,5.60
2018,04,23,06,47,5.70
2018,04,23,06,48,5.70
2018,04,23,06,49,5.80
2018,04,23,06,50,5.80
2018,04,23,06,51,5.90
2018,04,23,06,52,5.90
2018,04,23,06,53,6.00
2018,04,23,06,54,6.00
2018,04,23,06,55,6.10
2018,04,23,06,56,6.10
2018,04,23,06,57,6.10
2018,04,23,06,58,6.10
2018,04,23,06,59,6.10
2018,04,23,07,00,6.10
2018,04,23,07,01,6.10
2018,04,23,07,02,6.10
2018,04,23,07,03,6.10
2018,04,23,07,04,6.10
2018,04,23,07,05,6.10
2018,04,23,07,06,6.10
2018,04,23,07,07,6.10
2018,04,23,07,08,6.10
2018,04,23,07,09,6.10
2018,04,23,07,10,6.10
2018,04,23,07,11,6.10
2018,04,23,07,12,6.10
2018,04,23,07,13,6.10
2018,04,23,07,14,6.10
2018,04,23,07,15,6.10
2018,04,23,07,16,6.10
2018,04,23,07,17,6.10
2018,04,23,07,18,6.10
2018,04,23,07,19,6.10
2018,04,23,07,20,6.20
2018,04,23,07,21,6.20
2018,04,23,07,22,6.20
2018,04,23,07,23,6.20
2018,04,23,07,24,6.30
2018,04,23,07,25,6.30
2018,04,23,07,26,6.30
2018,04,23,07,27,6.40
2018,04,23,07,28,6.40
2018,04,23,07,29,6.50
2018,04,23,07,30,6.50
2018,04,23,07,31,6.60
2018,04,23,07,32,6.60
2018,04,23,07,33,6.60
2018,04,23,07,34,6.70
2018,04,23,07,35,6.70
2018,04,23,07,36,6.70
2018,04,23,07,37,6.70
2018,04,23,07,38,6.80
2018,04,23,07,39,6.80
2018,04,23,07,40,6.80
2018,04,23,07,41,6.90
2018,04,23,07,42,6.90
2018,04,23,07,43,7.00
2018,04,23,07,44,7.00
2018,04,23,07,45,7.10
2018,04,23,07,46,7.20
2018,04,23,07,47,7.30
2018,04,23,07,48,7.40
2018,04,23,07,49,7.40
2018,04,23,07,50,7.50
2018,04,23,07,51,7.60
2018,04,23,07,52,7.70
2018,04,23,07,53,7.80
2018,04,23,07,54,7.90
2018,04,23,07,55,7.90
2018,04,23,07,56,8.00
2018,04,23,07,57,8.10
2018,04,23,07,58,8.20
2018,04,23,07,59,8.30
2018,04,23,08,00,8.40
2018,04,23,08,01,8.50
2018,04,23,08,02,8.50
2018,04,23,08,03,8.60
2018,04,23,08,04,8.60
2018,04,23,08,05,8.60
2018,04,23,08,06,8.70
2018,04,23,08,07,8.70
2018,04,23,08,08,8.70
2018,04,23,08,09,8.70
2018,04,23,08,10,8.70
2018,04,23,08,11,8.80
2018,04,23,08,12,8.80
2018,04,23,08,13,8.90
2018,04,23,08,14,8.90
2018,04,23,08,15,9.00
2018,04,23,08,16,9.00
2018,04,23,08,17,9.10
2018,04,23,08,18,9.20
2018,04,23,08,19,9.30
2018,04,23,08,20,9.40
2018,04,23,08,21,9.50
2018,04,23,08,22,9.50
2018,04,23,08,23,9.70
2018,04,23,08,24,9.80
2018,04,23,08,25,9.90
2018,04,23,08,26,10.00
2018,04,23,08,27,10.10
2018,04,23,08,28,10.20
2018,04,23,08,29,10.30
2018,04,23,08,30,10.40
2018,04,23,08,31,10.40
2018,04,23,08,32,10.50
2018,04,23,08,33,10.50
2018,04,23,08,34,10.60
2018,04,23,08,35,10.70
2018,04,23,08,36,10.80
2018,04,23,08,37,10.90
2018,04,23,08,38,11.00
2018,04,23,08,39,11.00
2018,04,23,08,40,11.10
2018,04,23,08,41,11.10
2018,04,23,08,42,11.20
2018,04,23,08,43,11.20
2018,04,23,08,44,11.20
2018,04,23,08,45,11.30
2018,04,23,08,46,11.30
2018,04,23,08,47,11.30
2018,04,23,08,48,11.30
2018,04,23,08,49,11.40
2018,04,23,08,50,11.40
2018,04,23,08,51,11.50
2018,04,23,08,52,11.60
2018,04,23,08,53,11.60
2018,04,23,08,54,11.60
2018,04,23,08,55,11.60
2018,04,23,08,56,11.70
2018,04,23,08,57,11.70
2018,04,23,08,58,11.80
2018,04,23,08,59,11.90
2018,04,23,09,00,11.90
2018,04,23,09,01,12.00
2018,04,23,09,02,12.10
2018,04,23,09,03,12.10
2018,04,23,09,04,12.10
2018,04,23,09,05,12.20
2018,04,23,09,06,12.20
2018,04,23,09,07,12.20
2018,04,23,09,08,12.20
2018,04,23,09,09,12.20
2018,04,23,09,10,12.20
2018,04,23,09,11,12.20
2018,04,23,09,12,12.20
2018,04,23,09,13,12.20
2018,04,23,09,14,12.20
2018,04,23,09,15,12.20
2018,04,23,09,16,12.20
2018,04,23,09,17,12.20
2018,04,23,09,18,12.30
2018,04,23,09,19,12.30
2018,04,23,09,20,12.30
2018,04,23,09,21,12.30
2018,04,23,09,22,12.30
2018,04,23,09,23,12.40
2018,04,23,09,24,12.40
2018,04,23,09,25,12.50
2018,04,23,09,26,12.50
2018,04,23,09,27,12.60
2018,04,23,09,28,12.60
2018,04,23,09,29,12.60
2018,04,23,09,30,12.70
2018,04,23,09,31,12.70
2018,04,23,09,32,12.70
2018,04,23,09,33,12.70
2018,04,23,09,34,12.70
2018,04,23,09,35,12.80
2018,04,23,09,36,12.80
2018,04,23,09,37,12.80
2018,04,23,09,38,12.90
2018,04,23,09,39,13.00
2018,04,23,09,40,13.10
2018,04,23,09,41,13.20
2018,04,23,09,42,13.30
2018,04,23,09,43,13.30
2018,04,23,09,44,13.40
2018,04,23,09,45,13.40
2018,04,23,09,46,13.50
2018,04,23,09,47,13.50
2018,04,23,09,48,13.60
2018,04,23,09,49,13.60
2018,04,23,09,50,13.70
2018,04,23,09,51,13.70
2018,04,23,09,52,13.70
2018,04,23,09,53,13.80
2018,04,23,09,54,13.80
2018,04,23,09,55,13.90
2018,04,23,09,56,13.90
2018,04,23,09,57,13.90
2018,04,23,09,58,13.90
2018,04,23,09,59,13.90
2018,04,23,10,00,13.90
2018,04,23,10,01,14.00
2018,04,23,10,02,14.10
2018,04,23,10,03,14.20
2018,04,23,10,04,14.30
2018,04,23,10,05,14.40
2018,04,23,10,06,14.40
2018,04,23,10,07,14.40
2018,04,23,10,08,14.40
2018,04,23,10,09,14.40
2018,04,23,10,10,14.40
2018,04,23,10,11,14.30
2018,04,23,10,12,14.30
2018,04,23,10,13,14.30
2018,04,23,10,14,14.30
2018,04,23,10,15,14.30
2018,04,23,10,16,14.30
2018,04,23,10,17,14.30
2018,04,23,10,18,14.30
2018,04,23,10,19,14.40
2018,04,23,10,20,14.40
2018,04,23,10,21,14.40
2018,04,23,10,22,14.40
2018,04,23,10,23,14.30
2018,04,23,10,24,14.30
2018,04,23,10,25,14.30
2018,04,23,10,26,14.20
2018,04,23,10,27,14.30
2018,04,23,10,28,14.30
2018,04,23,10,29,14.40
2018,04,23,10,30,14.40
2018,04,23,10,31,14.40
2018,04,23,10,32,14.50
2018,04,23,10,33,14.60
2018,04,23,10,34,14.60
2018,04,23,10,35,14.70
2018,04,23,10,36,14.60
2018,04,23,10,37,14.60
2018,04,23,10,38,14.50
2018,04,23,10,39,14.50
2018,04,23,10,40,14.50
2018,04,23,10,41,14.60
2018,04,23,10,42,14.60
2018,04,23,10,43,14.70
2018,04,23,10,44,14.80
2018,04,23,10,45,14.90
2018,04,23,10,46,14.90
2018,04,23,10,47,15.00
2018,04,23,10,48,15.00
2018,04,23,10,49,15.00
2018,04,23,10,50,15.00
2018,04,23,10,51,15.00
2018,04,23,10,52,15.00
2018,04,23,10,53,15.00
2018,04,23,10,54,15.10
2018,04,23,10,55,15.20
2018,04,23,10,56,15.20
2018,04,23,10,57,15.40
2018,04,23,10,58,15.50
2018,04,23,10,59,15.60
2018,04,23,11,00,15.80
2018,04,23,11,01,15.80
2018,04,23,11,02,15.80
2018,04,23,11,03,15.70
2018,04,23,11,04,15.60
2018,04,23,11,05,15.60
2018,04,23,11,06,15.60
2018,04,23,11,07,15.60
2018,04,23,11,08,15.70
2018,04,23,11,09,15.70
2018,04,23,11,10,15.80
2018,04,23,11,11,15.80
2018,04,23,11,12,15.70
2018,04,23,11,13,15.70
2018,04,23,11,14,15.40
2018,04,23,11,15,15.20
2018,04,23,11,16,15.10
2018,04,23,11,17,15.10
2018,04,23,11,18,15.10
2018,04,23,11,19,15.10
2018,04,23,11,20,15.20
2018,04,23,11,21,15.30
2018,04,23,11,22,15.40
2018,04,23,11,23,15.40
2018,04,23,11,24,15.40
2018,04,23,11,25,15.40
2018,04,23,11,26,15.40
2018,04,23,11,27,15.40
2018,04,23,11,28,15.50
2018,04,23,11,29,15.50
2018,04,23,11,30,15.50
2018,04,23,11,31,15.50
2018,04,23,11,32,15.50
2018,04,23,11,33,15.50
2018,04,23,11,34,15.60
2018,04,23,11,35,15.60
2018,04,23,11,36,15.70
2018,04,23,11,37,15.80
2018,04,23,11,38,15.90
2018,04,23,11,39,15.90
2018,04,23,11,40,15.90
2018,04,23,11,41,15.90
2018,04,23,11,42,15.90
2018,04,23,11,43,15.80
2018,04,23,11,44,15.80
2018,04,23,11,45,15.70
2018,04,23,11,46,15.80
2018,04,23,11,47,15.90
2018,04,23,11,48,15.90
2018,04,23,11,49,15.90
2018,04,23,11,50,15.90
2018,04,23,11,51,15.90
2018,04,23,11,52,15.90
2018,04,23,11,53,15.90
2018,04,23,11,54,16.00
2018,04,23,11,55,16.10
2018,04,23,11,56,16.10
2018,04,23,11,57,16.20
2018,04,23,11,58,16.20
2018,04,23,11,59,16.20
2018,04,23,12,00,16.10
2018,04,23,12,01,16.10
2018,04,23,12,02,16.10
2018,04,23,12,03,16.10
2018,04,23,12,04,16.10
2018,04,23,12,05,16.10
2018,04,23,12,06,16.10
2018,04,23,12,07,16.10
2018,04,23,12,08,16.10
2018,04,23,12,09,16.20
2018,04,23,12,10,16.20
2018,04,23,12,11,16.10
2018,04,23,12,12,16.20
2018,04,23,12,13,16.20
2018,04,23,12,14,16.30
2018,04,23,12,15,16.30
2018,04,23,12,16,16.30
2018,04,23,12,17,16.40
2018,04,23,12,18,16.50
2018,04,23,12,19,16.50
2018,04,23,12,20,16.50
2018,04,23,12,21,16.50
2018,04,23,12,22,16.50
2018,04,23,12,23,16.60
2018,04,23,12,24,16.60
2018,04,23,12,25,16.60
2018,04,23,12,26,16.60
2018,04,23,12,27,16.60
2018,04,23,12,28,16.60
2018,04,23,12,29,16.60
2018,04,23,12,30,16.60
2018,04,23,12,31,16.70
2018,04,23,12,32,16.80
2018,04,23,12,33,16.70
2018,04,23,12,34,16.70
2018,04,23,12,35,16.70
2018,04,23,12,36,16.60
2018,04,23,12,37,16.60
2018,04,23,12,38,16.70
2018,04,23,12,39,16.70
2018,04,23,12,40,16.70
2018,04,23,12,41,16.70
2018,04,23,12,42,16.70
2018,04,23,12,43,16.60
2018,04,23,12,44,16.60
2018,04,23,12,45,16.70
2018,04,23,12,46,16.80
2018,04,23,12,47,16.90
2018,04,23,12,48,17.00
2018,04,23,12,49,17.00
2018,04,23,12,50,17.10
2018,04,23,12,51,17.10
2018,04,23,12,52,17.10
2018,04,23,12,53,17.10
2018,04,23,12,54,17.10
2018,04,23,12,55,17.10
2018,04,23,12,56,17.10
2018,04,23,12,57,17.10
2018,04,23,12,58,17.10
2018,04,23,12,59,17.20
2018,04,23,13,00,17.20
2018,04,23,13,01,17.30
2018,04,23,13,02,17.40
2018,04,23,13,03,17.40
2018,04,23,13,04,17.40
2018,04,23,13,05,17.50
2018,04,23,13,06,17.50
2018,04,23,13,07,17.50
2018,04,23,13,08,17.50
2018,04,23,13,09,17.50
2018,04,23,13,10,17.50
2018,04,23,13,11,17.50
2018,04,23,13,12,17.40
2018,04,23,13,13,17.40
2018,04,23,13,14,17.40
2018,04,23,13,15,17.40
2018,04,23,13,16,17.30
2018,04,23,13,17,17.30
2018,04,23,13,18,17.30
2018,04,23,13,19,17.30
2018,04,23,13,20,17.30
2018,04,23,13,21,17.30
2018,04,23,13,22,17.40
2018,04,23,13,23,17.40
2018,04,23,13,24,17.40
2018,04,23,13,25,17.50
2018,04,23,13,26,17.50
2018,04,23,13,27,17.50
2018,04,23,13,28,17.50
2018,04,23,13,29,17.60
2018,04,23,13,30,17.60
2018,04,23,13,31,17.60
2018,04,23,13,32,17.60
2018,04,23,13,33,17.70
2018,04,23,13,34,17.70
2018,04,23,13,35,17.70
2018,04,23,13,36,17.60
2018,04,23,13,37,17.60
2018,04,23,13,38,17.70
2018,04,23,13,39,17.70
2018,04,23,13,40,17.70
2018,04,23,13,41,17.70
2018,04,23,13,42,17.70
2018,04,23,13,43,17.70
2018,04,23,13,44,17.70
2018,04,23,13,45,17.70
2018,04,23,13,46,17.70
2018,04,23,13,47,17.80
2018,04,23,13,48,17.70
2018,04,23,13,49,17.70
2018,04,23,13,50,17.60
2018,04,23,13,51,17.70
2018,04,23,13,52,17.70
2018,04,23,13,53,17.70
2018,04,23,13,54,17.80
2018,04,23,13,55,17.90
2018,04,23,13,56,18.00
2018,04,23,13,57,18.10
2018,04,23,13,58,18.10
2018,04,23,13,59,18.10
2018,04,23,14,00,18.10
2018,04,23,14,01,18.10
2018,04,23,14,02,18.10
2018,04,23,14,03,18.20
2018,04,23,14,04,18.20
2018,04,23,14,05,18.20
2018,04,23,14,06,18.20
2018,04,23,14,07,18.20
2018,04,23,14,08,18.20
2018,04,23,14,09,18.10
2018,04,23,14,10,18.00
2018,04,23,14,11,17.90
2018,04,23,14,12,17.90
2018,04,23,14,13,17.80
2018,04,23,14,14,17.80
2018,04,23,14,15,17.90
2018,04,23,14,16,17.90
2018,04,23,14,17,18.10
2018,04,23,14,18,18.20
2018,04,23,14,19,18.30
2018,04,23,14,20,18.30
2018,04,23,14,21,18.20
2018,04,23,14,22,18.10
2018,04,23,14,23,18.10
2018,04,23,14,24,18.20
2018,04,23,14,25,18.20
2018,04,23,14,26,18.20
2018,04,23,14,27,18.20
2018,04,23,14,28,18.20
2018,04,23,14,29,18.20
2018,04,23,14,30,18.10
2018,04,23,14,31,18.00
2018,04,23,14,32,17.80
2018,04,23,14,33,17.70
2018,04,23,14,34,17.70
2018,04,23,14,35,17.60
2018,04,23,14,36,17.60
2018,04,23,14,37,17.70
2018,04,23,14,38,17.70
2018,04,23,14,39,17.70
2018,04,23,14,40,17.80
2018,04,23,14,41,17.70
2018,04,23,14,42,17.70
2018,04,23,14,43,17.70
2018,04,23,14,44,17.60
2018,04,23,14,45,17.50
2018,04,23,14,46,17.50
2018,04,23,14,47,17.60
2018,04,23,14,48,17.60
2018,04,23,14,49,17.70
2018,04,23,14,50,17.70
2018,04,23,14,51,17.80
2018,04,23,14,52,17.80
2018,04,23,14,53,17.80
2018,04,23,14,54,17.90
2018,04,23,14,55,17.90
2018,04,23,14,56,17.90
2018,04,23,14,57,17.90
2018,04,23,14,58,17.90
2018,04,23,14,59,17.80
2018,04,23,15,00,17.80
2018,04,23,15,01,17.80
2018,04,23,15,02,17.80
2018,04,23,15,03,17.80
2018,04,23,15,04,17.80
2018,04,23,15,05,17.80
2018,04,23,15,06,17.80
2018,04,23,15,07,17.80
2018,04,23,15,08,17.80
2018,04,23,15,09,17.80
2018,04,23,15,10,17.80
2018,04,23,15,11,17.80
2018,04,23,15,12,17.80
2018,04,23,15,13,17.90
2018,04,23,15,14,17.90
2018,04,23,15,15,17.90
2018,04,23,15,16,17.90
2018,04,23,15,17,17.90
2018,04,23,15,18,17.80
2018,04,23,15,19,17.80
2018,04,23,15,20,17.70
2018,04,23,15,21,17.70
2018,04,23,15,22,17.70
2018,04,23,15,23,17.70
2018,04,23,15,24,17.70
2018,04,23,15,25,17.70
2018,04,23,15,26,17.60
2018,04,23,15,27,17.60
2018,04,23,15,28,17.60
2018,04,23,15,29,17.60
2018,04,23,15,30,17.50
2018,04,23,15,31,17.50
2018,04,23,15,32,17.40
2018,04,23,15,33,17.40
2018,04,23,15,34,17.40
2018,04,23,15,35,17.40
2018,04,23,15,36,17.50
2018,04,23,15,37,17.50
2018,04,23,15,38,17.50
2018,04,23,15,39,17.60
2018,04,23,15,40,17.60
2018,04,23,15,41,17.60
2018,04,23,15,42,17.70
2018,04,23,15,43,17.70
2018,04,23,15,44,17.60
2018,04,23,15,45,17.60
2018,04,23,15,46,17.60
2018,04,23,15,47,17.50
2018,04,23,15,48,17.50
2018,04,23,15,49,17.40
2018,04,23,15,50,17.40
2018,04,23,15,51,17.40
2018,04,23,15,52,17.40
2018,04,23,15,53,17.40
2018,04,23,15,54,17.40
2018,04,23,15,55,17.40
2018,04,23,15,56,17.40
2018,04,23,15,57,17.50
2018,04,23,15,58,17.50
2018,04,23,15,59,17.50
2018,04,23,16,00,17.50
2018,04,23,16,01,17.60
2018,04,23,16,02,17.60
2018,04,23,16,03,17.60
2018,04,23,16,04,17.60
2018,04,23,16,05,17.60
2018,04,23,16,06,17.60
2018,04,23,16,07,17.60
2018,04,23,16,08,17.60
2018,04,23,16,09,17.60
2018,04,23,16,10,17.60
2018,04,23,16,11,17.60
2018,04,23,16,12,17.60
2018,04,23,16,13,17.60
2018,04,23,16,14,17.60
2018,04,23,16,15,17.50
2018,04,23,16,16,17.50
2018,04,23,16,17,17.50
2018,04,23,16,18,17.40
2018,04,23,16,19,17.40
2018,04,23,16,20,17.40
2018,04,23,16,21,17.40
2018,04,23,16,22,17.40
2018,04,23,16,23,17.40
2018,04,23,16,24,17.40
2018,04,23,16,25,17.40
2018,04,23,16,26,17.40
2018,04,23,16,27,17.40
2018,04,23,16,28,17.40
2018,04,23,16,29,17.40
2018,04,23,16,30,17.40
2018,04,23,16,31,17.40
2018,04,23,16,32,17.40
2018,04,23,16,33,17.40
2018,04,23,16,34,17.40
2018,04,23,16,35,17.40
2018,04,23,16,36,17.40
2018,04,23,16,37,17.50
2018,04,23,16,38,17.50
2018,04,23,16,39,17.50
2018,04,23,16,40,17.50
2018,04,23,16,41,17.50
2018,04,23,16,42,17.60
2018,04,23,16,43,17.60
2018,04,23,16,44,17.60
2018,04,23,16,45,17.60
2018,04,23,16,46,17.60
2018,04,23,16,47,17.60
2018,04,23,16,48,17.60
2018,04,23,16,49,17.60
2018,04,23,16,50,17.60
2018,04,23,16,51,17.60
2018,04,23,16,52,17.60
2018,04,23,16,53,17.60
2018,04,23,16,54,17.50
2018,04,23,16,55,17.50
2018,04,23,16,56,17.50
2018,04,23,16,57,17.50
2018,04,23,16,58,17.60
2018,04,23,16,59,17.60
2018,04,23,17,00,17.60
2018,04,23,17,01,17.60
2018,04,23,17,02,17.60
2018,04,23,17,03,17.60
2018,04,23,17,04,17.60
2018,04,23,17,05,17.60
2018,04,23,17,06,17.60
2018,04,23,17,07,17.60
2018,04,23,17,08,17.60
2018,04,23,17,09,17.60
2018,04,23,17,10,17.60
2018,04,23,17,11,17.60
2018,04,23,17,12,17.60
2018,04,23,17,13,17.60
2018,04,23,17,14,17.60
2018,04,23,17,15,17.60
2018,04,23,17,16,17.60
2018,04,23,17,17,17.60
2018,04,23,17,18,17.60
2018,04,23,17,19,17.60
2018,04,23,17,20,17.60
2018,04,23,17,21,17.50
2018,04,23,17,22,17.50
2018,04,23,17,23,17.50
2018,04,23,17,24,17.50
2018,04,23,17,25,17.50
2018,04,23,17,26,17.50
2018,04,23,17,27,17.50
2018,04,23,17,28,17.50
2018,04,23,17,29,17.50
2018,04,23,17,30,17.40
2018,04,23,17,31,17.40
2018,04,23,17,32,17.40
2018,04,23,17,33,17.40
2018,04,23,17,34,17.40
2018,04,23,17,35,17.40
2018,04,23,17,36,17.40
2018,04,23,17,37,17.40
2018,04,23,17,38,17.40
2018,04,23,17,39,17.30
2018,04,23,17,40,17.30
2018,04,23,17,41,17.30